This demonstration page uses our WeatherBlox Daily Observations layout. Learn more.

Left ArrowRight Arrow

Hourly Observations for December 20, 2020

Temp ( °F °C ) Dew Point ( °F °C ) Humidity (%) Winds ( mph kmh ) Pressure ( in mb ) Visibility ( mi km ) Precip ( " mm )
12:56 am 00:56 Mostly Cloudy 38 3.3 27 -2.8 65 65 NW 13 20 30.00 1016 10 16 0.00 0.00
1:56 am 01:56 Partly Cloudy 37 2.8 26 -3.3 65 65 WNW 13 20 30.01 1016 10 16 0.00 0.00
2:56 am 02:56 Clear 36 2.2 25 -3.9 64 64 NW 13 20 30.03 1017 10 16 0.00 0.00
3:56 am 03:56 Mostly Cloudy 35 1.7 26 -3.3 70 70 WNW 13 20 30.04 1017 10 16 0.00 0.00
4:56 am 04:56 Mostly Clear 32 0 25 -3.9 75 75 WNW 8 13 30.06 1018 10 16 0.00 0.00
5:56 am 05:56 Clear 30 -1.1 24 -4.4 79 79 WNW 9 15 30.05 1018 10 16 0.00 0.00
6:56 am 06:56 Clear 31 -0.6 25 -3.9 79 79 W 7 11 30.06 1018 10 16 0.00 0.00
7:56 am 07:56 Clear 31 -0.6 24 -4.4 76 76 W 7 11 30.06 1018 10 16 0.00 0.00
8:56 am 08:56 Sunny 29 -1.7 23 -5 78 78 WNW 7 11 30.06 1018 10 16 0.00 0.00
9:56 am 09:56 Sunny 34 1.1 25 -3.9 70 70 W 5 7 30.05 1018 10 16 0.00 0.00
10:56 am 10:56 Sunny 37 2.8 26 -3.3 65 65 SSW 8 13 30.04 1017 10 16 0.00 0.00
11:56 am 11:56 Sunny 38 3.3 26 -3.3 62 62 SW 10 17 29.97 1015 10 16 0.00 0.00
12:56 pm 12:56 Sunny 39 3.9 27 -2.8 62 62 SSW 10 17 29.93 1014 10 16 0.00 0.00
1:56 pm 13:56 Sunny 41 5 30 -1.1 65 65 SSW 12 19 29.90 1013 10 16 0.00 0.00
2:56 pm 14:56 Sunny 42 5.6 31 -0.6 65 65 SSW 13 20 29.86 1011 10 16 0.00 0.00
3:56 pm 15:56 Sunny 42 5.6 32 0 68 68 SSW 12 19 29.83 1010 10 16 0.00 0.00
4:56 pm 16:56 Sunny 43 6.1 31 -0.6 63 63 SW 13 20 29.82 1010 10 16 0.00 0.00
5:56 pm 17:56 Clear 42 5.6 30 -1.1 62 62 SW 12 19 29.84 1010 10 16 0.00 0.00
6:56 pm 18:56 Clear 42 5.6 29 -1.7 60 60 SW 16 26 29.82 1010 10 16 0.00 0.00
7:56 pm 19:56 Clear 41 5 29 -1.7 62 62 WSW 16 26 29.82 1010 10 16 0.00 0.00
8:56 pm 20:56 Clear 42 5.6 28 -2.2 58 58 WSW 16 26 29.83 1010 10 16 0.00 0.00
9:56 pm 21:56 Clear 42 5.6 28 -2.2 58 58 W 12 19 29.83 1010 10 16 0.00 0.00
10:56 pm 22:56 Clear 43 6.1 28 -2.2 56 56 W 13 20 29.85 1011 10 16 0.00 0.00
11:56 pm 23:56 Clear 38 3.3 29 -1.7 70 70 WNW 9 15 29.89 1012 10 16 0.00 0.00

Powered by AerisWeather